Time,TemperatureF,DewpointF,PressureIn,WindDirection,WindDirectionDegrees,WindSpeedMPH,WindSpeedGustMPH,Humidity,HourlyPrecipIn,Conditions,Clouds,dailyrainin,SoftwareType,DateUTC
2013-04-23 00:01:00,46.6,33.9,30.25,ENE,68,0.0,0.0,61,0.00,,CLR,0.00,VWS V12.08,2013-04-23 04:01:00,
2013-04-23 00:02:00,46.6,33.9,30.25,ENE,68,0.0,0.0,61,0.00,,CLR,0.00,VWS V12.08,2013-04-23 04:02:00,
2013-04-23 00:03:00,46.6,33.9,30.25,ENE,68,0.0,0.0,61,0.00,,CLR,0.00,VWS V12.08,2013-04-23 04:03:00,
2013-04-23 00:08:00,46.2,33.5,30.25,ENE,68,0.0,0.0,61,0.00,,CLR,0.00,VWS V12.08,2013-04-23 04:08:00,
2013-04-23 00:13:00,45.5,33.2,30.26,ENE,68,0.0,0.0,62,0.00,,CLR,0.00,VWS V12.08,2013-04-23 04:13:00,
2013-04-23 00:18:00,45.3,33.1,30.25,ENE,68,0.0,0.0,62,0.00,,CLR,0.00,VWS V12.08,2013-04-23 04:18:00,
2013-04-23 00:23:00,45.0,33.1,30.26,ENE,68,0.0,0.0,63,0.00,,CLR,0.00,VWS V12.08,2013-04-23 04:23:00,
2013-04-23 00:28:00,45.0,33.1,30.26,ENE,68,0.0,0.0,63,0.00,,CLR,0.00,VWS V12.08,2013-04-23 04:28:00,
2013-04-23 00:33:00,45.0,33.5,30.26,ENE,68,0.0,0.0,64,0.00,,CLR,0.00,VWS V12.08,2013-04-23 04:33:00,
2013-04-23 00:38:00,45.0,33.5,30.26,ENE,68,0.0,0.0,64,0.00,,CLR,0.00,VWS V12.08,2013-04-23 04:38:00,
2013-04-23 00:43:00,45.0,33.5,30.26,ENE,68,0.0,0.0,64,0.00,,CLR,0.00,VWS V12.08,2013-04-23 04:43:00,
2013-04-23 00:48:00,44.8,33.4,30.26,ENE,68,0.0,0.0,64,0.00,,CLR,0.00,VWS V12.08,2013-04-23 04:48:00,
2013-04-23 00:53:00,44.4,33.0,30.26,ENE,68,0.0,0.0,64,0.00,,CLR,0.00,VWS V12.08,2013-04-23 04:53:00,
2013-04-23 00:58:00,44.2,33.2,30.26,ENE,68,0.0,0.0,65,0.00,,CLR,0.00,VWS V12.08,2013-04-23 04:58:00,
2013-04-23 01:03:00,44.1,33.1,30.26,ENE,68,0.0,0.0,65,0.00,,CLR,0.00,VWS V12.08,2013-04-23 05:03:00,
2013-04-23 01:08:00,43.5,32.9,30.26,ENE,68,0.0,0.0,66,0.00,,CLR,0.00,VWS V12.08,2013-04-23 05:08:00,
2013-04-23 01:13:00,43.5,32.9,30.26,ENE,68,0.0,0.0,66,0.00,,CLR,0.00,VWS V12.08,2013-04-23 05:13:00,
2013-04-23 01:18:00,43.3,33.1,30.25,ENE,68,0.0,0.0,67,0.00,,CLR,0.00,VWS V12.08,2013-04-23 05:18:00,
2013-04-23 01:23:00,43.2,33.0,30.25,ENE,68,0.0,0.0,67,0.00,,CLR,0.00,VWS V12.08,2013-04-23 05:23:00,
2013-04-23 01:28:00,43.2,33.3,30.25,ENE,68,0.0,0.0,68,0.00,,CLR,0.00,VWS V12.08,2013-04-23 05:28:00,
2013-04-23 01:33:00,43.0,33.2,30.25,ENE,68,0.0,0.0,68,0.00,,CLR,0.00,VWS V12.08,2013-04-23 05:33:00,
2013-04-23 01:39:00,42.6,33.2,30.25,ENE,68,0.0,0.0,69,0.00,,CLR,0.00,VWS V12.08,2013-04-23 05:39:00,
2013-04-23 01:44:00,42.4,33.0,30.25,ENE,68,0.0,0.0,69,0.00,,CLR,0.00,VWS V12.08,2013-04-23 05:44:00,
2013-04-23 01:49:00,42.3,32.8,30.25,ENE,68,0.0,0.0,69,0.00,,CLR,0.00,VWS V12.08,2013-04-23 05:49:00,
2013-04-23 01:54:00,42.1,32.7,30.25,ENE,68,0.0,0.0,69,0.00,,CLR,0.00,VWS V12.08,2013-04-23 05:54:00,
2013-04-23 01:59:00,42.1,32.7,30.25,ENE,68,0.0,0.0,69,0.00,,CLR,0.00,VWS V12.08,2013-04-23 05:59:00,
2013-04-23 02:04:00,41.9,32.5,30.25,ENE,68,0.0,0.0,69,0.00,,CLR,0.00,VWS V12.08,2013-04-23 06:04:00,
2013-04-23 02:09:00,41.9,32.8,30.25,ENE,68,0.0,0.0,70,0.00,,CLR,0.00,VWS V12.08,2013-04-23 06:09:00,
2013-04-23 02:14:00,41.9,32.8,30.24,ENE,68,0.0,0.0,70,0.00,,CLR,0.00,VWS V12.08,2013-04-23 06:14:00,
2013-04-23 02:19:00,41.9,32.5,30.24,ENE,68,0.0,0.0,69,0.00,,CLR,0.00,VWS V12.08,2013-04-23 06:19:00,
2013-04-23 02:24:00,41.9,32.5,30.24,ENE,68,0.0,0.0,69,0.00,,CLR,0.00,VWS V12.08,2013-04-23 06:24:00,
2013-04-23 02:29:00,41.7,32.7,30.24,ENE,68,0.0,0.0,70,0.00,,CLR,0.00,VWS V12.08,2013-04-23 06:29:00,
2013-04-23 02:34:00,41.7,32.7,30.24,ENE,68,0.0,0.0,70,0.00,,CLR,0.00,VWS V12.08,2013-04-23 06:34:00,
2013-04-23 02:39:00,41.7,33.0,30.24,ENE,68,0.0,0.0,71,0.00,,CLR,0.00,VWS V12.08,2013-04-23 06:39:00,
2013-04-23 02:44:00,41.5,32.5,30.24,ENE,68,0.0,0.0,70,0.00,,CLR,0.00,VWS V12.08,2013-04-23 06:44:00,
2013-04-23 02:49:00,41.5,32.5,30.24,ENE,68,0.0,0.0,70,0.00,,CLR,0.00,VWS V12.08,2013-04-23 06:49:00,
2013-04-23 02:54:00,41.5,32.5,30.24,ENE,68,0.0,0.0,70,0.00,,CLR,0.00,VWS V12.08,2013-04-23 06:54:00,
2013-04-23 02:59:00,41.7,32.7,30.24,ENE,68,0.0,0.0,70,0.00,,CLR,0.00,VWS V12.08,2013-04-23 06:59:00,
2013-04-23 03:04:00,41.5,32.5,30.23,ENE,68,0.0,0.0,70,0.00,,CLR,0.00,VWS V12.08,2013-04-23 07:04:00,
2013-04-23 03:09:00,41.4,32.7,30.23,ENE,68,0.0,0.0,71,0.00,,CLR,0.00,VWS V12.08,2013-04-23 07:09:00,
2013-04-23 03:14:00,41.2,32.2,30.23,ESE,112,0.0,0.0,70,0.00,,CLR,0.00,VWS V12.08,2013-04-23 07:14:00,
2013-04-23 03:19:00,41.0,32.3,30.23,ESE,112,0.0,0.0,71,0.00,,CLR,0.00,VWS V12.08,2013-04-23 07:19:00,
2013-04-23 03:24:00,40.8,31.8,30.23,ESE,112,0.0,0.0,70,0.00,,CLR,0.00,VWS V12.08,2013-04-23 07:24:00,
2013-04-23 03:29:00,40.8,32.2,30.23,ESE,112,0.0,0.0,71,0.00,,CLR,0.00,VWS V12.08,2013-04-23 07:29:00,
2013-04-23 03:34:00,40.6,32.0,30.22,ESE,112,0.0,0.0,71,0.00,,CLR,0.00,VWS V12.08,2013-04-23 07:34:00,
2013-04-23 03:39:00,40.5,32.2,30.23,ESE,112,0.0,0.0,72,0.00,,CLR,0.00,VWS V12.08,2013-04-23 07:39:00,
2013-04-23 03:44:00,40.5,32.2,30.23,ESE,112,0.0,0.0,72,0.00,,CLR,0.00,VWS V12.08,2013-04-23 07:44:00,
2013-04-23 03:49:00,40.5,32.2,30.23,ESE,112,0.0,0.0,72,0.00,,CLR,0.00,VWS V12.08,2013-04-23 07:49:00,
2013-04-23 03:54:00,40.6,32.7,30.23,ESE,112,0.0,0.0,73,0.00,,CLR,0.00,VWS V12.08,2013-04-23 07:54:00,
2013-04-23 03:59:00,40.5,32.2,30.23,ESE,112,0.0,0.0,72,0.00,,CLR,0.00,VWS V12.08,2013-04-23 07:59:00,
2013-04-23 04:04:00,40.3,32.0,30.23,ESE,112,0.0,0.0,72,0.00,,CLR,0.00,VWS V12.08,2013-04-23 08:04:00,
2013-04-23 04:09:00,40.3,32.0,30.23,ESE,112,0.0,0.0,72,0.00,,CLR,0.00,VWS V12.08,2013-04-23 08:09:00,
2013-04-23 04:14:00,40.3,32.0,30.23,ESE,112,0.0,0.0,72,0.00,,CLR,0.00,VWS V12.08,2013-04-23 08:14:00,
2013-04-23 04:19:00,39.9,31.6,30.23,ESE,112,0.0,0.0,72,0.00,,CLR,0.00,VWS V12.08,2013-04-23 08:19:00,
2013-04-23 04:24:00,39.7,31.8,30.22,ESE,112,0.0,0.0,73,0.00,,CLR,0.00,VWS V12.08,2013-04-23 08:24:00,
2013-04-23 04:29:00,39.6,31.6,30.22,ESE,112,0.0,0.0,73,0.00,,CLR,0.00,VWS V12.08,2013-04-23 08:29:00,
2013-04-23 04:34:00,39.6,31.6,30.22,ESE,112,0.0,0.0,73,0.00,,CLR,0.00,VWS V12.08,2013-04-23 08:34:00,
2013-04-23 04:39:00,39.4,31.5,30.23,ESE,112,0.0,0.0,73,0.00,,CLR,0.00,VWS V12.08,2013-04-23 08:39:00,
2013-04-23 04:44:00,39.4,31.5,30.23,ESE,112,0.0,0.0,73,0.00,,CLR,0.00,VWS V12.08,2013-04-23 08:44:00,
2013-04-23 04:49:00,39.0,31.1,30.23,ESE,112,0.0,0.0,73,0.00,,CLR,0.00,VWS V12.08,2013-04-23 08:49:00,
2013-04-23 04:54:00,39.4,31.8,30.23,ESE,112,0.0,0.0,74,0.00,,CLR,0.00,VWS V12.08,2013-04-23 08:54:00,
2013-04-23 04:59:00,39.0,31.5,30.22,ESE,112,0.0,0.0,74,0.00,,CLR,0.00,VWS V12.08,2013-04-23 08:59:00,
2013-04-23 05:04:00,39.0,31.5,30.23,ESE,112,0.0,0.0,74,0.00,,CLR,0.00,VWS V12.08,2013-04-23 09:04:00,
2013-04-23 05:09:00,39.0,31.5,30.22,ESE,112,0.0,0.0,74,0.00,,CLR,0.00,VWS V12.08,2013-04-23 09:09:00,
2013-04-23 05:14:00,39.0,31.5,30.22,ESE,112,0.0,0.0,74,0.00,,CLR,0.00,VWS V12.08,2013-04-23 09:14:00,
2013-04-23 05:19:00,39.0,31.5,30.22,ESE,112,0.0,0.0,74,0.00,,CLR,0.00,VWS V12.08,2013-04-23 09:19:00,
2013-04-23 05:24:00,39.6,32.3,30.22,ESE,112,0.0,0.0,75,0.00,,CLR,0.00,VWS V12.08,2013-04-23 09:24:00,
2013-04-23 05:29:00,39.6,32.3,30.22,ESE,112,0.0,0.0,75,0.00,,CLR,0.00,VWS V12.08,2013-04-23 09:29:00,
2013-04-23 05:34:00,39.4,32.1,30.22,ESE,112,0.0,0.0,75,0.00,,CLR,0.00,VWS V12.08,2013-04-23 09:34:00,
2013-04-23 05:39:00,39.4,32.1,30.22,ESE,112,0.0,0.0,75,0.00,,CLR,0.00,VWS V12.08,2013-04-23 09:39:00,
2013-04-23 05:44:00,39.4,32.1,30.22,ESE,112,0.0,0.0,75,0.00,,CLR,0.00,VWS V12.08,2013-04-23 09:44:00,
2013-04-23 05:49:00,39.6,32.3,30.22,ESE,112,0.0,0.0,75,0.00,,CLR,0.00,VWS V12.08,2013-04-23 09:49:00,
2013-04-23 05:54:00,39.7,32.8,30.22,ESE,112,0.0,0.0,76,0.00,,CLR,0.00,VWS V12.08,2013-04-23 09:54:00,
2013-04-23 05:59:00,39.7,32.5,30.22,ESE,112,0.0,0.0,75,0.00,,CLR,0.00,VWS V12.08,2013-04-23 09:59:00,
2013-04-23 06:04:00,39.7,32.5,30.22,ESE,112,0.0,0.0,75,0.00,,CLR,0.00,VWS V12.08,2013-04-23 10:04:00,
2013-04-23 06:09:00,39.9,33.0,30.22,ESE,112,0.0,0.0,76,0.00,,CLR,0.00,VWS V12.08,2013-04-23 10:09:00,
2013-04-23 06:14:00,40.1,33.2,30.22,ESE,112,0.0,0.0,76,0.00,,CLR,0.00,VWS V12.08,2013-04-23 10:14:00,
2013-04-23 06:19:00,40.3,33.3,30.22,ESE,112,0.0,0.0,76,0.00,,CLR,0.00,VWS V12.08,2013-04-23 10:19:00,
2013-04-23 06:24:00,40.3,33.3,30.22,ESE,112,0.0,0.0,76,0.00,,CLR,0.00,VWS V12.08,2013-04-23 10:24:00,
2013-04-23 06:29:00,40.3,33.3,30.22,ESE,112,0.0,0.0,76,0.00,,CLR,0.00,VWS V12.08,2013-04-23 10:29:00,
2013-04-23 06:34:00,40.3,33.3,30.22,ESE,112,0.0,0.0,76,0.00,,CLR,0.00,VWS V12.08,2013-04-23 10:34:00,
2013-04-23 06:39:00,40.5,33.5,30.22,ESE,112,0.0,0.0,76,0.00,,CLR,0.00,VWS V12.08,2013-04-23 10:39:00,
2013-04-23 06:44:00,40.1,33.2,30.22,ESE,112,0.0,0.0,76,0.00,,CLR,0.00,VWS V12.08,2013-04-23 10:44:00,
2013-04-23 06:49:00,39.9,33.0,30.22,ESE,112,0.0,0.0,76,0.00,,CLR,0.00,VWS V12.08,2013-04-23 10:49:00,
2013-04-23 06:54:00,39.9,33.0,30.22,ESE,112,0.0,0.0,76,0.00,,CLR,0.00,VWS V12.08,2013-04-23 10:54:00,
2013-04-23 06:59:00,39.7,32.8,30.23,ESE,112,0.0,0.0,76,0.00,,CLR,0.00,VWS V12.08,2013-04-23 10:59:00,
2013-04-23 07:04:00,39.7,32.8,30.22,ESE,112,0.0,0.0,76,0.00,,CLR,0.00,VWS V12.08,2013-04-23 11:04:00,
2013-04-23 07:09:00,39.7,32.8,30.22,ESE,112,0.0,0.0,76,0.00,,CLR,0.00,VWS V12.08,2013-04-23 11:09:00,
2013-04-23 07:14:00,39.7,32.8,30.23,ESE,112,0.0,0.0,76,0.00,,CLR,0.00,VWS V12.08,2013-04-23 11:14:00,
2013-04-23 07:19:00,39.7,32.8,30.23,ESE,112,0.0,0.0,76,0.00,,CLR,0.00,VWS V12.08,2013-04-23 11:19:00,
2013-04-23 07:24:00,39.7,32.8,30.23,ESE,112,0.0,0.0,76,0.00,,CLR,0.00,VWS V12.08,2013-04-23 11:24:00,
2013-04-23 07:29:00,39.9,33.0,30.23,ESE,112,0.0,0.0,76,0.00,,CLR,0.00,VWS V12.08,2013-04-23 11:29:00,
2013-04-23 07:34:00,39.9,33.0,30.22,ESE,112,0.0,0.0,76,0.00,,CLR,0.00,VWS V12.08,2013-04-23 11:34:00,
2013-04-23 07:39:00,40.1,33.2,30.22,ESE,112,0.0,0.0,76,0.00,,CLR,0.00,VWS V12.08,2013-04-23 11:39:00,
2013-04-23 07:44:00,40.3,33.7,30.22,ESE,112,0.0,0.0,77,0.00,,CLR,0.00,VWS V12.08,2013-04-23 11:44:00,
2013-04-23 07:49:00,40.5,33.8,30.22,ESE,112,0.0,0.0,77,0.00,,CLR,0.00,VWS V12.08,2013-04-23 11:49:00,
2013-04-23 07:54:00,40.8,34.2,30.22,ESE,112,0.0,0.0,77,0.00,,CLR,0.00,VWS V12.08,2013-04-23 11:54:00,
2013-04-23 07:59:00,40.8,34.2,30.22,ESE,112,0.0,0.0,77,0.00,,CLR,0.00,VWS V12.08,2013-04-23 11:59:00,
2013-04-23 08:04:00,41.2,34.5,30.22,ESE,112,0.0,0.0,77,0.00,,CLR,0.00,VWS V12.08,2013-04-23 12:04:00,
2013-04-23 08:09:00,41.2,34.5,30.22,ESE,112,0.0,0.0,77,0.00,,CLR,0.00,VWS V12.08,2013-04-23 12:09:00,
2013-04-23 08:14:00,41.2,34.5,30.23,ESE,112,0.0,0.0,77,0.00,,CLR,0.00,VWS V12.08,2013-04-23 12:14:00,
2013-04-23 08:19:00,42.4,35.4,30.23,ESE,112,0.0,0.0,76,0.00,,CLR,0.00,VWS V12.08,2013-04-23 12:19:00,
2013-04-23 08:24:00,43.0,36.0,30.23,ESE,112,0.0,0.0,76,0.00,,CLR,0.00,VWS V12.08,2013-04-23 12:24:00,
2013-04-23 08:29:00,43.3,36.3,30.23,ESE,112,0.0,0.0,76,0.00,,CLR,0.00,VWS V12.08,2013-04-23 12:29:00,
2013-04-23 08:34:00,43.9,36.8,30.23,ESE,112,0.0,0.0,76,0.00,,CLR,0.00,VWS V12.08,2013-04-23 12:34:00,
2013-04-23 08:39:00,44.2,36.8,30.23,ESE,112,0.0,0.0,75,0.00,,CLR,0.00,VWS V12.08,2013-04-23 12:39:00,
2013-04-23 08:44:00,44.6,36.5,30.24,ESE,112,0.0,0.0,73,0.00,,CLR,0.00,VWS V12.08,2013-04-23 12:44:00,
2013-04-23 08:49:00,45.1,37.0,30.24,WNW,292,4.7,4.7,73,0.00,,CLR,0.00,VWS V12.08,2013-04-23 12:49:00,
2013-04-23 08:54:00,46.0,37.2,30.24,WNW,292,0.0,4.7,71,0.00,,CLR,0.00,VWS V12.08,2013-04-23 12:54:00,
2013-04-23 08:59:00,46.6,37.7,30.24,NW,315,0.0,4.7,71,0.00,,CLR,0.00,VWS V12.08,2013-04-23 12:59:00,
2013-04-23 09:04:00,47.7,38.4,30.24,NNE,22,0.0,0.0,70,0.00,,CLR,0.00,VWS V12.08,2013-04-23 13:04:00,
2013-04-23 09:09:00,48.2,38.5,30.24,NNE,22,0.0,0.0,69,0.00,,CLR,0.00,VWS V12.08,2013-04-23 13:09:00,
2013-04-23 09:14:00,48.4,38.7,30.24,NNE,22,0.0,0.0,69,0.00,,CLR,0.00,VWS V12.08,2013-04-23 13:14:00,
2013-04-23 09:19:00,48.9,38.8,30.24,NW,315,2.0,2.0,68,0.00,,CLR,0.00,VWS V12.08,2013-04-23 13:19:00,
2013-04-23 09:24:00,49.1,38.2,30.24,WNW,292,0.0,2.0,66,0.00,,CLR,0.00,VWS V12.08,2013-04-23 13:24:00,
2013-04-23 09:29:00,49.3,38.0,30.25,WNW,292,0.0,2.0,65,0.00,,CLR,0.00,VWS V12.08,2013-04-23 13:29:00,
2013-04-23 09:34:00,49.6,38.0,30.25,West,270,0.0,2.0,64,0.00,,CLR,0.00,VWS V12.08,2013-04-23 13:34:00,
2013-04-23 09:39:00,49.8,38.5,30.25,West,270,0.0,2.0,65,0.00,,CLR,0.00,VWS V12.08,2013-04-23 13:39:00,
2013-04-23 09:44:00,49.8,38.5,30.25,West,270,0.0,0.0,65,0.00,,CLR,0.00,VWS V12.08,2013-04-23 13:44:00,
2013-04-23 09:49:00,51.1,39.7,30.24,NE,45,0.7,0.7,65,0.00,,CLR,0.00,VWS V12.08,2013-04-23 13:49:00,
2013-04-23 09:54:00,51.6,39.8,30.24,NNE,22,0.0,0.7,64,0.00,,CLR,0.00,VWS V12.08,2013-04-23 13:54:00,
2013-04-23 09:59:00,52.3,40.5,30.24,ENE,68,0.0,0.7,64,0.00,,CLR,0.00,VWS V12.08,2013-04-23 13:59:00,
2013-04-23 10:04:00,52.9,40.6,30.24,ESE,112,0.0,0.0,63,0.00,,CLR,0.00,VWS V12.08,2013-04-23 14:04:00,
2013-04-23 10:09:00,53.2,41.0,30.24,ENE,68,0.0,0.7,63,0.00,,CLR,0.00,VWS V12.08,2013-04-23 14:09:00,
2013-04-23 10:14:00,53.8,40.7,30.25,WNW,292,0.0,0.7,61,0.00,,CLR,0.00,VWS V12.08,2013-04-23 14:14:00,
2013-04-23 10:19:00,53.8,40.7,30.25,ENE,68,0.0,2.0,61,0.00,,CLR,0.00,VWS V12.08,2013-04-23 14:19:00,
2013-04-23 10:24:00,54.0,41.2,30.23,East,90,0.0,2.7,62,0.00,,CLR,0.00,VWS V12.08,2013-04-23 14:24:00,
2013-04-23 10:29:00,54.3,41.6,30.23,NE,45,0.0,2.7,62,0.00,,CLR,0.00,VWS V12.08,2013-04-23 14:29:00,
2013-04-23 10:34:00,54.9,42.1,30.23,NW,315,0.0,3.8,62,0.00,,CLR,0.00,VWS V12.08,2013-04-23 14:34:00,
2013-04-23 10:39:00,55.2,42.4,30.22,NNW,338,0.0,3.8,62,0.00,,CLR,0.00,VWS V12.08,2013-04-23 14:39:00,
2013-04-23 10:44:00,56.5,43.6,30.22,ENE,68,1.3,1.3,62,0.00,,CLR,0.00,VWS V12.08,2013-04-23 14:44:00,
2013-04-23 10:49:00,57.0,43.7,30.22,ESE,112,0.0,2.5,61,0.00,,CLR,0.00,VWS V12.08,2013-04-23 14:49:00,
2013-04-23 10:54:00,57.9,44.1,30.22,NE,45,0.0,2.5,60,0.00,,CLR,0.00,VWS V12.08,2013-04-23 14:54:00,
2013-04-23 10:59:00,58.6,44.4,30.23,NW,315,4.3,5.6,59,0.00,,CLR,0.00,VWS V12.08,2013-04-23 14:59:00,
2013-04-23 11:04:00,58.8,44.5,30.23,NNW,338,0.0,0.0,59,0.00,,CLR,0.00,VWS V12.08,2013-04-23 15:04:00,
2013-04-23 11:09:00,58.8,44.5,30.24,WNW,292,0.0,0.2,59,0.00,,CLR,0.00,VWS V12.08,2013-04-23 15:09:00,
2013-04-23 11:14:00,59.5,44.8,30.24,WNW,292,0.0,3.8,58,0.00,,CLR,0.00,VWS V12.08,2013-04-23 15:14:00,
2013-04-23 11:19:00,59.5,45.7,30.24,NE,45,0.0,3.8,60,0.00,,CLR,0.00,VWS V12.08,2013-04-23 15:19:00,
2013-04-23 11:24:00,60.4,45.2,30.23,West,270,0.0,2.5,57,0.00,,CLR,0.00,VWS V12.08,2013-04-23 15:24:00,
2013-04-23 11:29:00,60.4,46.1,30.23,WSW,248,0.0,3.1,59,0.00,,CLR,0.00,VWS V12.08,2013-04-23 15:29:00,
2013-04-23 11:34:00,60.6,45.8,30.22,NE,45,0.0,3.1,58,0.00,,CLR,0.00,VWS V12.08,2013-04-23 15:34:00,
2013-04-23 11:39:00,61.2,45.8,30.22,West,270,0.0,3.1,57,0.00,,CLR,0.00,VWS V12.08,2013-04-23 15:39:00,
2013-04-23 11:44:00,61.3,45.5,30.22,NNW,338,0.0,4.5,56,0.00,,CLR,0.00,VWS V12.08,2013-04-23 15:44:00,
2013-04-23 11:49:00,61.5,45.2,30.22,WNW,292,2.2,4.5,55,0.00,,CLR,0.00,VWS V12.08,2013-04-23 15:49:00,
2013-04-23 11:54:00,61.9,45.5,30.22,NNE,22,0.0,4.5,55,0.00,,CLR,0.00,VWS V12.08,2013-04-23 15:54:00,
2013-04-23 11:59:00,62.1,45.2,30.21,WNW,292,0.0,4.5,54,0.00,,CLR,0.00,VWS V12.08,2013-04-23 15:59:00,
2013-04-23 12:04:00,62.4,47.5,30.20,ENE,68,0.0,0.7,58,0.00,,CLR,0.00,VWS V12.08,2013-04-23 16:04:00,
2013-04-23 12:09:00,63.3,46.9,30.21,NNE,22,0.0,2.5,55,0.00,,CLR,0.00,VWS V12.08,2013-04-23 16:09:00,
2013-04-23 12:14:00,63.7,47.2,30.20,NNE,22,0.0,2.5,55,0.00,,CLR,0.00,VWS V12.08,2013-04-23 16:14:00,
2013-04-23 12:19:00,64.2,47.7,30.20,West,270,2.0,4.0,55,0.00,,CLR,0.00,VWS V12.08,2013-04-23 16:19:00,
2013-04-23 12:24:00,64.2,46.8,30.20,WNW,292,0.0,4.7,53,0.00,,CLR,0.00,VWS V12.08,2013-04-23 16:24:00,
2013-04-23 12:29:00,64.2,46.8,30.19,NW,315,0.0,4.7,53,0.00,,CLR,0.00,VWS V12.08,2013-04-23 16:29:00,
2013-04-23 12:34:00,64.6,47.1,30.19,NE,45,1.1,4.7,53,0.00,,CLR,0.00,VWS V12.08,2013-04-23 16:34:00,
2013-04-23 12:39:00,64.9,46.9,30.18,NNE,22,0.0,4.7,52,0.00,,CLR,0.00,VWS V12.08,2013-04-23 16:39:00,
2013-04-23 12:44:00,65.5,48.4,30.18,ENE,68,1.6,4.0,54,0.00,,CLR,0.00,VWS V12.08,2013-04-23 16:44:00,
2013-04-23 12:49:00,66.0,47.4,30.18,WSW,248,0.0,4.0,51,0.00,,CLR,0.00,VWS V12.08,2013-04-23 16:49:00,
2013-04-23 12:54:00,66.0,48.4,30.18,NE,45,0.0,4.0,53,0.00,,CLR,0.00,VWS V12.08,2013-04-23 16:54:00,
2013-04-23 12:59:00,66.4,47.7,30.18,WNW,292,0.0,4.0,51,0.00,,CLR,0.00,VWS V12.08,2013-04-23 16:59:00,
2013-04-23 13:04:00,66.6,47.9,30.17,NW,315,0.0,2.9,51,0.00,,CLR,0.00,VWS V12.08,2013-04-23 17:04:00,
2013-04-23 13:09:00,67.1,48.9,30.17,ENE,68,0.0,4.3,52,0.00,,CLR,0.00,VWS V12.08,2013-04-23 17:09:00,
2013-04-23 13:14:00,67.6,49.4,30.17,ENE,68,1.6,4.3,52,0.00,,CLR,0.00,VWS V12.08,2013-04-23 17:14:00,
2013-04-23 13:19:00,68.2,49.4,30.17,East,90,0.0,4.3,51,0.00,,CLR,0.00,VWS V12.08,2013-04-23 17:19:00,
2013-04-23 13:24:00,68.4,48.5,30.17,West,270,0.0,4.5,49,0.00,,CLR,0.00,VWS V12.08,2013-04-23 17:24:00,
2013-04-23 13:29:00,68.4,50.1,30.16,East,90,0.0,4.5,52,0.00,,CLR,0.00,VWS V12.08,2013-04-23 17:29:00,
2013-04-23 13:34:00,68.9,49.0,30.16,NW,315,0.0,4.5,49,0.00,,CLR,0.00,VWS V12.08,2013-04-23 17:34:00,
2013-04-23 13:39:00,69.1,49.7,30.15,ENE,68,0.0,4.5,50,0.00,,CLR,0.00,VWS V12.08,2013-04-23 17:39:00,
2013-04-23 13:44:00,69.4,50.0,30.15,ENE,68,0.0,2.7,50,0.00,,CLR,0.00,VWS V12.08,2013-04-23 17:44:00,
2013-04-23 13:49:00,69.6,50.2,30.14,ENE,68,1.3,2.7,50,0.00,,CLR,0.00,VWS V12.08,2013-04-23 17:49:00,
2013-04-23 13:54:00,70.0,50.0,30.14,NE,45,0.0,2.9,49,0.00,,CLR,0.00,VWS V12.08,2013-04-23 17:54:00,
2013-04-23 13:59:00,70.0,48.8,30.14,NNE,22,0.0,3.8,47,0.00,,CLR,0.00,VWS V12.08,2013-04-23 17:59:00,
2013-04-23 14:04:00,70.0,50.0,30.14,NE,45,0.9,3.4,49,0.00,,CLR,0.00,VWS V12.08,2013-04-23 18:04:00,
2013-04-23 14:09:00,70.3,50.3,30.14,NE,45,0.0,3.4,49,0.00,,CLR,0.00,VWS V12.08,2013-04-23 18:09:00,
2013-04-23 14:14:00,70.5,49.9,30.14,ENE,68,0.0,3.4,48,0.00,,CLR,0.00,VWS V12.08,2013-04-23 18:14:00,
2013-04-23 14:19:00,70.9,50.8,30.13,ENE,68,0.0,3.4,49,0.00,,CLR,0.00,VWS V12.08,2013-04-23 18:19:00,
2013-04-23 14:24:00,71.2,50.0,30.13,NNE,22,3.1,3.1,47,0.00,,CLR,0.00,VWS V12.08,2013-04-23 18:24:00,
2013-04-23 14:29:00,71.2,49.4,30.13,North,0,0.0,3.1,46,0.00,,CLR,0.00,VWS V12.08,2013-04-23 18:29:00,
2013-04-23 14:34:00,71.2,50.6,30.13,ENE,68,0.7,4.5,48,0.00,,CLR,0.00,VWS V12.08,2013-04-23 18:34:00,
2013-04-23 14:39:00,71.2,50.0,30.12,SE,135,2.0,4.5,47,0.00,,CLR,0.00,VWS V12.08,2013-04-23 18:39:00,
2013-04-23 14:44:00,71.4,50.2,30.12,North,0,0.9,2.9,47,0.00,,CLR,0.00,VWS V12.08,2013-04-23 18:44:00,
2013-04-23 14:49:00,71.4,49.6,30.12,NNE,22,0.0,2.9,46,0.00,,CLR,0.00,VWS V12.08,2013-04-23 18:49:00,
2013-04-23 14:54:00,71.8,49.3,30.12,ENE,68,1.8,2.9,45,0.00,,CLR,0.00,VWS V12.08,2013-04-23 18:54:00,
2013-04-23 14:59:00,72.0,48.9,30.12,NE,45,0.0,4.7,44,0.00,,CLR,0.00,VWS V12.08,2013-04-23 18:59:00,
2013-04-23 15:04:00,72.0,50.1,30.12,NE,45,0.0,3.4,46,0.00,,CLR,0.00,VWS V12.08,2013-04-23 19:04:00,
2013-04-23 15:09:00,72.1,49.7,30.12,NNW,338,0.0,4.9,45,0.00,,CLR,0.00,VWS V12.08,2013-04-23 19:09:00,
2013-04-23 15:14:00,72.3,50.4,30.12,ESE,112,0.0,4.9,46,0.00,,CLR,0.00,VWS V12.08,2013-04-23 19:14:00,
2013-04-23 15:19:00,72.7,50.1,30.11,NW,315,0.0,4.9,45,0.00,,CLR,0.00,VWS V12.08,2013-04-23 19:19:00,
2013-04-23 15:24:00,73.0,49.9,30.12,NE,45,0.0,3.4,44,0.00,,CLR,0.00,VWS V12.08,2013-04-23 19:24:00,
2013-04-23 15:29:00,73.0,50.5,30.11,West,270,0.0,3.4,45,0.00,,CLR,0.00,VWS V12.08,2013-04-23 19:29:00,
2013-04-23 15:34:00,73.0,49.2,30.11,SW,225,0.0,3.6,43,0.00,,CLR,0.00,VWS V12.08,2013-04-23 19:34:00,
2013-04-23 15:39:00,73.0,49.9,30.11,ESE,112,1.3,5.4,44,0.00,,CLR,0.00,VWS V12.08,2013-04-23 19:39:00,
2013-04-23 15:44:00,73.0,48.6,30.11,West,270,0.0,5.1,42,0.00,,CLR,0.00,VWS V12.08,2013-04-23 19:44:00,
2013-04-23 15:49:00,72.9,49.7,30.10,NNE,22,1.6,5.1,44,0.00,,CLR,0.00,VWS V12.08,2013-04-23 19:49:00,
2013-04-23 15:54:00,73.0,49.9,30.10,ESE,112,0.0,5.1,44,0.00,,CLR,0.00,VWS V12.08,2013-04-23 19:54:00,
2013-04-23 15:59:00,73.0,48.6,30.10,ENE,68,0.0,5.1,42,0.00,,CLR,0.00,VWS V12.08,2013-04-23 19:59:00,
2013-04-23 16:04:00,73.0,49.2,30.10,SSW,202,0.0,2.9,43,0.00,,CLR,0.00,VWS V12.08,2013-04-23 20:04:00,
2013-04-23 16:09:00,73.2,50.0,30.09,East,90,1.3,5.4,44,0.00,,CLR,0.00,VWS V12.08,2013-04-23 20:09:00,
2013-04-23 16:14:00,73.2,49.4,30.09,ENE,68,0.7,5.4,43,0.00,,CLR,0.00,VWS V12.08,2013-04-23 20:14:00,
2013-04-23 16:19:00,73.2,48.8,30.09,East,90,0.0,5.4,42,0.00,,CLR,0.00,VWS V12.08,2013-04-23 20:19:00,
2013-04-23 16:24:00,73.2,48.8,30.09,ENE,68,0.0,3.1,42,0.00,,CLR,0.00,VWS V12.08,2013-04-23 20:24:00,
2013-04-23 16:29:00,73.2,48.1,30.08,ENE,68,0.0,6.0,41,0.00,,CLR,0.00,VWS V12.08,2013-04-23 20:29:00,
2013-04-23 16:34:00,73.2,48.8,30.08,East,90,0.0,6.0,42,0.00,,CLR,0.00,VWS V12.08,2013-04-23 20:34:00,
2013-04-23 16:39:00,73.2,48.8,30.08,ENE,68,0.0,6.0,42,0.00,,CLR,0.00,VWS V12.08,2013-04-23 20:39:00,
2013-04-23 16:44:00,73.2,49.4,30.08,NNE,22,0.0,4.0,43,0.00,,CLR,0.00,VWS V12.08,2013-04-23 20:44:00,
2013-04-23 16:49:00,73.2,48.8,30.08,NE,45,0.7,4.0,42,0.00,,CLR,0.00,VWS V12.08,2013-04-23 20:49:00,
2013-04-23 16:54:00,73.2,50.0,30.08,NE,45,2.2,4.0,44,0.00,,CLR,0.00,VWS V12.08,2013-04-23 20:54:00,
2013-04-23 16:59:00,73.2,49.4,30.08,ESE,112,2.2,4.0,43,0.00,,CLR,0.00,VWS V12.08,2013-04-23 20:59:00,
2013-04-23 17:04:00,73.2,48.8,30.08,East,90,0.0,1.8,42,0.00,,CLR,0.00,VWS V12.08,2013-04-23 21:04:00,
2013-04-23 17:09:00,73.0,49.2,30.08,NE,45,0.2,6.3,43,0.00,,CLR,0.00,VWS V12.08,2013-04-23 21:09:00,
2013-04-23 17:14:00,73.0,48.6,30.08,NNE,22,2.0,6.3,42,0.00,,CLR,0.00,VWS V12.08,2013-04-23 21:14:00,
2013-04-23 17:19:00,72.7,48.9,30.08,ESE,112,0.7,6.3,43,0.00,,CLR,0.00,VWS V12.08,2013-04-23 21:19:00,
2013-04-23 17:24:00,72.7,48.3,30.07,ENE,68,0.0,3.6,42,0.00,,CLR,0.00,VWS V12.08,2013-04-23 21:24:00,
2013-04-23 17:29:00,72.7,48.3,30.08,NE,45,1.8,3.6,42,0.00,,CLR,0.00,VWS V12.08,2013-04-23 21:29:00,
2013-04-23 17:34:00,72.7,49.5,30.07,ENE,68,0.0,3.6,44,0.00,,CLR,0.00,VWS V12.08,2013-04-23 21:34:00,
2013-04-23 17:39:00,72.5,48.8,30.07,East,90,0.0,3.6,43,0.00,,CLR,0.00,VWS V12.08,2013-04-23 21:39:00,
2013-04-23 17:44:00,72.3,48.6,30.08,ENE,68,0.0,2.7,43,0.00,,CLR,0.00,VWS V12.08,2013-04-23 21:44:00,
2013-04-23 17:49:00,72.3,49.2,30.08,SE,135,0.0,2.7,44,0.00,,CLR,0.00,VWS V12.08,2013-04-23 21:49:00,
2013-04-23 17:54:00,72.3,48.6,30.08,ENE,68,0.7,2.7,43,0.00,,CLR,0.00,VWS V12.08,2013-04-23 21:54:00,
2013-04-23 17:59:00,72.3,48.0,30.07,East,90,0.0,3.8,42,0.00,,CLR,0.00,VWS V12.08,2013-04-23 21:59:00,
2013-04-23 18:04:00,72.1,49.0,30.08,ENE,68,0.0,1.6,44,0.00,,CLR,0.00,VWS V12.08,2013-04-23 22:04:00,
2013-04-23 18:09:00,72.0,48.9,30.07,SSW,202,0.0,1.6,44,0.00,,CLR,0.00,VWS V12.08,2013-04-23 22:09:00,
2013-04-23 18:14:00,72.1,48.4,30.07,SSW,202,0.0,2.9,43,0.00,,CLR,0.00,VWS V12.08,2013-04-23 22:14:00,
2013-04-23 18:19:00,72.1,49.0,30.08,ESE,112,0.0,2.9,44,0.00,,CLR,0.00,VWS V12.08,2013-04-23 22:19:00,
2013-04-23 18:24:00,71.8,48.7,30.08,ESE,112,0.0,1.3,44,0.00,,CLR,0.00,VWS V12.08,2013-04-23 22:24:00,
2013-04-23 18:29:00,71.8,48.7,30.08,ENE,68,0.0,2.7,44,0.00,,CLR,0.00,VWS V12.08,2013-04-23 22:29:00,
2013-04-23 18:34:00,71.1,48.7,30.08,ENE,68,0.0,2.7,45,0.00,,CLR,0.00,VWS V12.08,2013-04-23 22:34:00,
2013-04-23 18:39:00,70.3,48.0,30.08,ENE,68,0.0,2.7,45,0.00,,CLR,0.00,VWS V12.08,2013-04-23 22:39:00,
2013-04-23 18:44:00,69.6,47.4,30.08,ENE,68,0.0,0.4,45,0.00,,CLR,0.00,VWS V12.08,2013-04-23 22:44:00,
2013-04-23 18:49:00,68.9,47.3,30.08,SE,135,0.0,0.4,46,0.00,,CLR,0.00,VWS V12.08,2013-04-23 22:49:00,
2013-04-23 18:54:00,68.5,47.0,30.08,East,90,0.0,2.0,46,0.00,,CLR,0.00,VWS V12.08,2013-04-23 22:54:00,
2013-04-23 18:59:00,68.0,47.0,30.08,East,90,0.0,2.7,47,0.00,,CLR,0.00,VWS V12.08,2013-04-23 22:59:00,
2013-04-23 19:04:00,67.8,46.9,30.09,ESE,112,0.0,2.9,47,0.00,,CLR,0.00,VWS V12.08,2013-04-23 23:04:00,
2013-04-23 19:09:00,67.3,46.9,30.08,East,90,0.0,2.9,48,0.00,,CLR,0.00,VWS V12.08,2013-04-23 23:09:00,
2013-04-23 19:14:00,67.1,46.8,30.09,East,90,0.0,2.9,48,0.00,,CLR,0.00,VWS V12.08,2013-04-23 23:14:00,
2013-04-23 19:19:00,66.9,47.2,30.08,East,90,0.0,2.9,49,0.00,,CLR,0.00,VWS V12.08,2013-04-23 23:19:00,
2013-04-23 19:24:00,66.7,46.5,30.09,ENE,68,0.0,0.7,48,0.00,,CLR,0.00,VWS V12.08,2013-04-23 23:24:00,
2013-04-23 19:29:00,66.4,46.7,30.09,ENE,68,0.0,0.9,49,0.00,,CLR,0.00,VWS V12.08,2013-04-23 23:29:00,
2013-04-23 19:34:00,66.4,47.2,30.09,NE,45,0.0,2.2,50,0.00,,CLR,0.00,VWS V12.08,2013-04-23 23:34:00,
2013-04-23 19:40:00,66.0,46.9,30.08,ENE,68,0.0,2.2,50,0.00,,CLR,0.00,VWS V12.08,2013-04-23 23:40:00,
2013-04-23 19:45:00,65.8,46.7,30.08,ENE,68,0.0,1.1,50,0.00,,CLR,0.00,VWS V12.08,2013-04-23 23:45:00,
2013-04-23 19:50:00,65.5,46.9,30.08,ENE,68,0.0,1.1,51,0.00,,CLR,0.00,VWS V12.08,2013-04-23 23:50:00,
2013-04-23 19:55:00,65.3,46.7,30.08,ENE,68,0.0,1.1,51,0.00,,CLR,0.00,VWS V12.08,2013-04-23 23:55:00,
2013-04-23 20:00:00,64.9,46.4,30.08,ESE,112,0.0,1.1,51,0.00,,CLR,0.00,VWS V12.08,2013-04-24 00:00:00,
2013-04-23 20:05:00,64.6,46.6,30.08,ESE,112,0.0,0.0,52,0.00,,CLR,0.00,VWS V12.08,2013-04-24 00:05:00,
2013-04-23 20:10:00,64.4,46.4,30.08,ENE,68,1.3,1.3,52,0.00,,CLR,0.00,VWS V12.08,2013-04-24 00:10:00,
2013-04-23 20:15:00,64.2,46.2,30.08,ESE,112,0.0,1.3,52,0.00,,CLR,0.00,VWS V12.08,2013-04-24 00:15:00,
2013-04-23 20:20:00,64.2,46.2,30.09,ESE,112,0.0,1.3,52,0.00,,CLR,0.00,VWS V12.08,2013-04-24 00:20:00,
2013-04-23 20:25:00,64.0,46.6,30.09,SE,135,0.0,0.0,53,0.00,,CLR,0.00,VWS V12.08,2013-04-24 00:25:00,
2013-04-23 20:30:00,63.7,46.2,30.09,SE,135,0.0,0.0,53,0.00,,CLR,0.00,VWS V12.08,2013-04-24 00:30:00,
2013-04-23 20:35:00,63.5,46.6,30.09,ESE,112,0.0,0.0,54,0.00,,CLR,0.00,VWS V12.08,2013-04-24 00:35:00,
2013-04-23 20:40:00,63.3,46.4,30.09,West,270,0.0,0.4,54,0.00,,CLR,0.00,VWS V12.08,2013-04-24 00:40:00,
2013-04-23 20:45:00,63.1,46.2,30.09,ESE,112,0.0,5.4,54,0.00,,CLR,0.00,VWS V12.08,2013-04-24 00:45:00,
2013-04-23 20:50:00,63.0,46.1,30.09,SE,135,0.0,5.4,54,0.00,,CLR,0.00,VWS V12.08,2013-04-24 00:50:00,
2013-04-23 20:55:00,62.8,46.4,30.09,ESE,112,0.0,5.4,55,0.00,,CLR,0.00,VWS V12.08,2013-04-24 00:55:00,
2013-04-23 21:00:00,62.6,46.2,30.09,ESE,112,2.0,5.4,55,0.00,,CLR,0.00,VWS V12.08,2013-04-24 01:00:00,
2013-04-23 21:05:00,62.6,46.7,30.09,ESE,112,0.0,0.0,56,0.00,,CLR,0.00,VWS V12.08,2013-04-24 01:05:00,
2013-04-23 21:10:00,62.4,46.5,30.09,SSE,158,0.0,0.0,56,0.00,,CLR,0.00,VWS V12.08,2013-04-24 01:10:00,
2013-04-23 21:15:00,62.4,47.0,30.09,SE,135,0.0,0.0,57,0.00,,CLR,0.00,VWS V12.08,2013-04-24 01:15:00,
2013-04-23 21:20:00,62.4,47.0,30.09,SE,135,0.0,0.0,57,0.00,,CLR,0.00,VWS V12.08,2013-04-24 01:20:00,
2013-04-23 21:25:00,62.4,47.0,30.09,SE,135,0.0,0.0,57,0.00,,CLR,0.00,VWS V12.08,2013-04-24 01:25:00,
2013-04-23 21:30:00,62.2,46.8,30.09,SE,135,0.0,0.0,57,0.00,,CLR,0.00,VWS V12.08,2013-04-24 01:30:00,
2013-04-23 21:35:00,62.2,46.8,30.09,SE,135,0.0,0.0,57,0.00,,CLR,0.00,VWS V12.08,2013-04-24 01:35:00,
2013-04-23 21:40:00,62.1,47.1,30.10,SE,135,1.3,1.3,58,0.00,,CLR,0.00,VWS V12.08,2013-04-24 01:40:00,
2013-04-23 21:45:00,61.9,47.0,30.10,South,180,0.0,2.2,58,0.00,,CLR,0.00,VWS V12.08,2013-04-24 01:45:00,
2013-04-23 21:50:00,61.9,47.0,30.10,SE,135,0.0,2.2,58,0.00,,CLR,0.00,VWS V12.08,2013-04-24 01:50:00,
2013-04-23 21:55:00,61.7,46.8,30.11,SSE,158,0.0,2.2,58,0.00,,CLR,0.00,VWS V12.08,2013-04-24 01:55:00,
2013-04-23 22:00:00,61.5,46.6,30.11,SE,135,0.9,2.2,58,0.00,,CLR,0.00,VWS V12.08,2013-04-24 02:00:00,
2013-04-23 22:05:00,61.5,46.6,30.10,SE,135,0.0,0.0,58,0.00,,CLR,0.00,VWS V12.08,2013-04-24 02:05:00,
2013-04-23 22:10:00,61.3,46.9,30.10,SSW,202,1.8,1.8,59,0.00,,CLR,0.00,VWS V12.08,2013-04-24 02:10:00,
2013-04-23 22:15:00,61.2,47.2,30.10,ESE,112,0.0,1.8,60,0.00,,CLR,0.00,VWS V12.08,2013-04-24 02:15:00,
2013-04-23 22:21:00,61.0,47.0,30.10,SE,135,0.0,0.0,60,0.00,,CLR,0.00,VWS V12.08,2013-04-24 02:21:00,
2013-04-23 22:27:00,60.8,46.8,30.10,SE,135,0.0,0.0,60,0.00,,CLR,0.00,VWS V12.08,2013-04-24 02:27:00,
2013-04-23 22:32:00,60.8,46.8,30.10,SE,135,0.7,0.7,60,0.00,,CLR,0.00,VWS V12.08,2013-04-24 02:32:00,
2013-04-23 22:37:00,60.6,46.7,30.10,East,90,0.0,0.7,60,0.00,,CLR,0.00,VWS V12.08,2013-04-24 02:37:00,
2013-04-23 22:42:00,60.4,46.5,30.10,SE,135,0.0,0.0,60,0.00,,CLR,0.00,VWS V12.08,2013-04-24 02:42:00,
2013-04-23 22:47:00,60.4,46.5,30.10,SSE,158,0.0,1.1,60,0.00,,CLR,0.00,VWS V12.08,2013-04-24 02:47:00,
2013-04-23 22:52:00,60.1,46.2,30.10,SSW,202,0.0,1.1,60,0.00,,CLR,0.00,VWS V12.08,2013-04-24 02:52:00,
2013-04-23 22:57:00,60.1,46.6,30.10,SSE,158,0.0,1.1,61,0.00,,CLR,0.00,VWS V12.08,2013-04-24 02:57:00,
2013-04-23 23:03:00,60.1,46.6,30.10,SE,135,0.0,0.0,61,0.00,,CLR,0.00,VWS V12.08,2013-04-24 03:03:00,
2013-04-23 23:08:00,59.9,46.4,30.10,SSE,158,0.0,0.0,61,0.00,,CLR,0.00,VWS V12.08,2013-04-24 03:08:00,
2013-04-23 23:13:00,59.7,46.7,30.10,SSE,158,0.0,0.0,62,0.00,,CLR,0.00,VWS V12.08,2013-04-24 03:13:00,
2013-04-23 23:18:00,59.7,46.7,30.10,SE,135,0.0,0.0,62,0.00,,CLR,0.00,VWS V12.08,2013-04-24 03:18:00,
2013-04-23 23:23:00,59.5,46.5,30.10,SE,135,0.0,0.0,62,0.00,,CLR,0.00,VWS V12.08,2013-04-24 03:23:00,
2013-04-23 23:28:00,59.4,46.3,30.10,SE,135,0.0,0.0,62,0.00,,CLR,0.00,VWS V12.08,2013-04-24 03:28:00,
2013-04-23 23:34:00,59.2,46.6,30.10,ESE,112,0.9,2.2,63,0.00,,CLR,0.00,VWS V12.08,2013-04-24 03:34:00,
2013-04-23 23:39:00,59.0,46.4,30.10,ESE,112,0.0,2.2,63,0.00,,CLR,0.00,VWS V12.08,2013-04-24 03:39:00,
2013-04-23 23:44:00,58.8,46.7,30.11,ESE,112,0.0,1.6,64,0.00,,CLR,0.00,VWS V12.08,2013-04-24 03:44:00,
2013-04-23 23:49:00,58.8,46.7,30.11,SE,135,2.0,4.9,64,0.00,,CLR,0.00,VWS V12.08,2013-04-24 03:49:00,
2013-04-23 23:55:00,58.8,46.7,30.11,SSE,158,1.6,4.9,64,0.00,,CLR,0.00,VWS V12.08,2013-04-24 03:55:00,